QPF
0.02 0.01 0.01 0.02 0.02 0.03 0.03 0.04 0.05 0.04 0.04 0.05 0.04 0.04 0.03 0.03 0.02 0.02 0.02 0.02 0.02 0.03 0.03 0.03 0.02 0.01 0.01 0.01 0.01 0.01 0.01 0.01 0.01 0.00 0.00 0.00 0.00 0.01 0.02 0.02 0.01 0.01 0.00 0.00
0.01 0.01 0.01 0.01 0.02 0.02 0.03 0.04 0.05 0.04 0.05 0.05 0.05 0.04 0.04 0.04 0.03 0.03 0.02 0.02 0.02 0.02 0.02 0.03 0.03 0.02 0.01 0.01 0.01 0.01 0.01 0.01 0.01 0.01 0.00 0.01 0.01 0.01 0.01 0.02 0.02 0.01 0.01 0.01
0.01 0.01 0.01 0.02 0.03 0.04 0.05 0.05 0.05 0.05 0.05 0.05 0.05 0.04 0.04 0.04 0.04 0.03 0.03 0.02 0.02 0.01 0.01 0.02 0.03 0.03 0.02 0.02 0.02 0.01 0.01 0.01 0.01 0.01 0.01 0.00 0.01 0.01 0.01 0.01 0.01 0.01 0.02 0.02
0.01 0.01 0.02 0.03 0.03 0.04 0.04 0.04 0.05 0.05 0.05 0.04 0.05 0.05 0.04 0.04 0.03 0.03 0.03 0.03 0.02 0.02 0.02 0.01 0.01 0.02 0.02 0.02 0.02 0.02 0.01 0.01 0.01 0.01 0.01 0.01 0.01 0.01 0.01 0.01 0.01 0.01 0.02 0.02
0.02 0.01 0.01 0.01 0.02 0.03 0.03 0.03 0.04 0.04 0.03 0.03 0.03 0.03 0.03 0.03 0.03 0.03 0.03 0.02 0.02 0.02 0.02 0.01 0.01 0.01 0.02 0.01 0.01 0.01 0.01 0.01 0.01 0.01 0.01 0.01 0.01 0.01 0.01 0.01 0.01 0.01 0.02 0.02
0.02 0.01 0.01 0.01 0.01 0.02 0.02 0.02 0.02 0.03 0.03 0.03 0.02 0.03 0.03 0.02 0.02 0.03 0.02 0.02 0.02 0.02 0.02 0.02 0.01 0.01 0.01 0.01 0.01 0.01 0.01 0.01 0.00 0.01 0.01 0.01 0.01 0.01 0.01 0.01 0.01 0.01 0.01 0.02
0.01 0.01 0.01 0.01 0.01 0.01 0.01 0.02 0.02 0.02 0.03 0.03 0.03 0.03 0.03 0.03 0.03 0.04 0.03 0.02 0.02 0.01 0.01 0.01 0.02 0.02 0.01 0.01 0.01 0.01 0.01 0.01 0.00 0.01 0.01 0.01 0.01 0.01 0.01 0.01 0.01 0.01 0.01 0.01
0.01 0.01 0.01 0.01 0.01 0.02 0.03 0.02 0.02 0.02 0.02 0.02 0.02 0.02 0.02 0.03 0.03 0.03 0.04 0.02 0.02 0.02 0.02 0.01 0.01 0.02 0.02 0.02 0.01 0.01 0.01 0.01 0.01 0.01 0.01 0.01 0.02 0.02 0.02 0.01 0.02 0.01 0.01 0.01
0.02 0.02 0.03 0.02 0.03 0.03 0.03 0.02 0.02 0.02 0.02 0.02 0.02 0.02 0.02 0.02 0.03 0.03 0.04 0.02 0.02 0.02 0.02 0.02 0.02 0.02 0.03 0.02 0.02 0.02 0.02 0.02 0.01 0.01 0.01 0.01 0.02 0.02 0.02 0.02 0.02 0.02 0.02 0.02
0.01 0.02 0.02 0.02 0.02 0.02 0.02 0.03 0.03 0.02 0.02 0.02 0.02 0.02 0.02 0.02 0.03 0.03 0.03 0.02 0.02 0.02 0.02 0.02 0.02 0.03 0.03 0.03 0.02 0.02 0.02 0.02 0.02 0.02 0.02 0.02 0.02 0.02 0.02 0.02 0.02 0.02 0.02 0.02
0.01 0.01 0.01 0.01 0.02 0.02 0.02 0.03 0.03 0.02 0.02 0.03 0.02 0.02 0.02 0.03 0.03 0.03 0.02 0.03 0.03 0.03 0.03 0.03 0.03 0.03 0.03 0.03 0.03 0.03 0.03 0.02 0.02 0.02 0.02 0.02 0.02 0.02 0.02 0.02 0.02 0.02 0.02 0.02
0.01 0.01 0.01 0.01 0.02 0.03 0.03 0.03 0.04 0.03 0.03 0.03 0.02 0.02 0.02 0.03 0.03 0.02 0.03 0.02 0.02 0.02 0.02 0.03 0.03 0.03 0.03 0.03 0.03 0.03 0.03 0.03 0.02 0.02 0.02 0.02 0.02 0.02 0.02 0.02 0.02 0.02 0.02 0.02
0.01 0.01 0.01 0.01 0.02 0.03 0.03 0.04 0.04 0.04 0.03 0.03 0.03 0.03 0.03 0.03 0.03 0.03 0.03 0.02 0.02 0.02 0.02 0.02 0.03 0.03 0.03 0.03 0.03 0.03 0.03 0.03 0.03 0.03 0.03 0.03 0.02 0.02 0.02 0.03 0.02 0.02 0.02 0.01
0.01 0.01 0.01 0.01 0.02 0.03 0.04 0.05 0.04 0.03 0.04 0.04 0.04 0.03 0.02 0.03 0.05 0.05 0.05 0.04 0.03 0.02 0.03 0.03 0.03 0.03 0.03 0.02 0.03 0.02 0.02 0.02 0.03 0.03 0.03 0.03 0.03 0.03 0.02 0.02 0.02 0.02 0.03 0.02
0.01 0.01 0.02 0.02 0.02 0.03 0.04 0.04 0.04 0.04 0.03 0.03 0.03 0.02 0.02 0.02 0.04 0.05 0.06 0.06 0.04 0.03 0.03 0.03 0.03 0.03 0.02 0.02 0.02 0.02 0.02 0.02 0.03 0.03 0.03 0.03 0.03 0.03 0.03 0.03 0.02 0.02 0.02 0.03
0.01 0.01 0.01 0.01 0.02 0.02 0.03 0.03 0.03 0.04 0.04 0.03 0.03 0.02 0.02 0.02 0.02 0.03 0.06 0.08 0.06 0.04 0.03 0.03 0.03 0.02 0.02 0.02 0.02 0.02 0.02 0.03 0.03 0.04 0.04 0.03 0.03 0.03 0.03 0.03 0.03 0.02 0.02 0.02
0.01 0.01 0.01 0.01 0.01 0.02 0.02 0.02 0.03 0.03 0.03 0.03 0.03 0.03 0.02 0.02 0.02 0.03 0.05 0.07 0.06 0.05 0.04 0.04 0.04 0.03 0.03 0.02 0.02 0.02 0.02 0.03 0.03 0.04 0.04 0.04 0.03 0.03 0.03 0.03 0.04 0.04 0.03 0.02
0.01 0.01 0.01 0.01 0.01 0.01 0.01 0.01 0.01 0.02 0.02 0.02 0.02 0.01 0.01 0.01 0.02 0.02 0.03 0.04 0.04 0.04 0.04 0.04 0.04 0.04 0.03 0.03 0.03 0.03 0.03 0.03 0.03 0.03 0.03 0.04 0.04 0.04 0.04 0.04 0.04 0.04 0.04 0.03
0.01 0.01 0.01 0.01 0.01 0.01 0.01 0.01 0.01 0.01 0.01 0.01 0.01 0.01 0.01 0.01 0.01 0.02 0.02 0.02 0.02 0.02 0.02 0.02 0.03 0.03 0.03 0.03 0.03 0.03 0.03 0.04 0.04 0.04 0.04 0.04 0.04 0.04 0.04 0.04 0.04 0.03 0.03 0.03
0.01 0.01 0.01 0.01 0.01 0.01 0.01 0.01 0.01 0.01 0.01 0.01 0.01 0.00 0.00 0.01 0.01 0.01 0.01 0.01 0.02 0.02 0.02 0.02 0.02 0.02 0.02 0.03 0.03 0.03 0.03 0.04 0.04 0.04 0.04 0.04 0.04 0.04 0.04 0.04 0.03 0.03 0.03 0.03
0.01 0.00 0.00 0.00 0.00 0.00 0.01 0.01 0.00 0.01 0.01 0.01 0.00 0.00 0.00 0.00 0.00 0.01 0.01 0.01 0.01 0.01 0.02 0.02 0.02 0.02 0.02 0.03 0.03 0.03 0.04 0.04 0.04 0.04 0.04 0.05 0.04 0.04 0.04 0.03 0.03 0.03 0.03 0.03
0.00 0.00 0.00 0.00 0.00 0.00 0.00 0.00 0.00 0.00 0.00 0.00 0.00 0.00 0.00 0.00 0.01 0.01 0.01 0.01 0.01 0.01 0.01 0.02 0.02 0.02 0.03 0.03 0.03 0.03 0.03 0.03 0.03 0.04 0.04 0.04 0.04 0.04 0.04 0.04 0.03 0.03 0.03 0.03
0.00 0.00 0.00 0.00 0.00 0.01 0.01 0.01 0.01 0.01 0.01 0.01 0.00 0.00 0.01 0.01 0.01 0.01 0.01 0.01 0.01 0.01 0.01 0.01 0.02 0.02 0.03 0.03 0.03 0.03 0.03 0.03 0.03 0.03 0.03 0.03 0.03 0.03 0.03 0.03 0.04 0.03 0.03 0.03
0.00 0.00 0.00 0.00 0.00 0.00 0.01 0.01 0.01 0.01 0.01 0.01 0.00 0.01 0.01 0.01 0.01 0.01 0.01 0.01 0.01 0.01 0.01 0.01 0.02 0.02 0.02 0.02 0.02 0.02 0.03 0.03 0.03 0.03 0.03 0.03 0.03 0.03 0.03 0.03 0.03 0.03 0.03 0.03
0.00 0.00 0.00 0.00 0.00 0.00 0.00 0.01 0.01 0.00 0.00 0.00 0.00 0.01 0.01 0.01 0.01 0.01 0.01 0.01 0.01 0.01 0.01 0.01 0.02 0.02 0.02 0.02 0.02 0.02 0.02 0.03 0.03 0.03 0.03 0.03 0.03 0.03 0.03 0.03 0.03 0.03 0.03 0.03
0.00 0.00 0.00 0.00 0.00 0.00 0.00 0.00 0.00 0.00 0.00 0.00 0.00 0.00 0.01 0.01 0.01 0.01 0.01 0.01 0.01 0.01 0.01 0.01 0.01 0.01 0.01 0.02 0.02 0.02 0.02 0.02 0.03 0.03 0.03 0.03 0.03 0.03 0.03 0.02 0.02 0.02 0.02 0.02
0.01 0.01 0.01 0.00 0.00 0.00 0.00 0.00 0.00 0.00 0.00 0.01 0.01 0.01 0.01 0.01 0.01 0.01 0.01 0.01 0.01 0.01 0.01 0.01 0.01 0.01 0.02 0.02 0.02 0.02 0.02 0.02 0.02 0.02 0.02 0.03 0.03 0.03 0.03 0.02 0.02 0.02 0.02 0.02
MSLP
1024.71 1024.30 1023.92 1023.59 1023.33 1023.17 1023.11 1023.12 1023.18 1023.24 1023.24 1023.13 1022.88 1022.48 1021.93 1021.27 1020.55 1019.81 1019.09 1018.43 1017.82 1017.26 1016.70 1016.10 1015.42 1014.64 1013.74 1012.76 1011.73 1010.74 1009.83 1009.09 1008.56 1008.26 1008.20 1008.35 1008.65 1009.04 1009.48 1009.92 1010.34 1010.73 1011.11 1011.51
1025.89 1025.66 1025.43 1025.22 1025.04 1024.90 1024.80 1024.72 1024.64 1024.52 1024.34 1024.04 1023.62 1023.08 1022.42 1021.69 1020.94 1020.20 1019.50 1018.89 1018.34 1017.83 1017.32 1016.76 1016.10 1015.31 1014.39 1013.36 1012.25 1011.16 1010.14 1009.27 1008.61 1008.20 1008.04 1008.12 1008.37 1008.75 1009.21 1009.68 1010.13 1010.57 1010.97 1011.37
1027.16 1027.02 1026.86 1026.70 1026.53 1026.36 1026.20 1026.02 1025.82 1025.56 1025.23 1024.80 1024.25 1023.59 1022.85 1022.07 1021.27 1020.52 1019.83 1019.22 1018.70 1018.21 1017.73 1017.20 1016.56 1015.78 1014.86 1013.81 1012.67 1011.52 1010.42 1009.46 1008.71 1008.21 1007.97 1007.98 1008.20 1008.58 1009.05 1009.56 1010.06 1010.54 1010.99 1011.42
1028.53 1028.40 1028.23 1028.03 1027.81 1027.57 1027.32 1027.05 1026.75 1026.38 1025.95 1025.42 1024.79 1024.06 1023.27 1022.44 1021.61 1020.82 1020.11 1019.48 1018.94 1018.45 1017.96 1017.43 1016.81 1016.05 1015.15 1014.10 1012.97 1011.80 1010.67 1009.67 1008.87 1008.30 1008.00 1007.97 1008.16 1008.53 1009.02 1009.57 1010.12 1010.66 1011.16 1011.63
1029.96 1029.76 1029.51 1029.22 1028.91 1028.57 1028.23 1027.86 1027.46 1027.02 1026.52 1025.94 1025.26 1024.50 1023.68 1022.81 1021.95 1021.12 1020.36 1019.68 1019.08 1018.55 1018.03 1017.48 1016.85 1016.12 1015.24 1014.24 1013.14 1012.00 1010.90 1009.90 1009.07 1008.48 1008.15 1008.09 1008.26 1008.62 1009.12 1009.70 1010.30 1010.89 1011.44 1011.95
1031.36 1031.05 1030.69 1030.29 1029.85 1029.40 1028.95 1028.49 1028.03 1027.53 1026.99 1026.38 1025.69 1024.92 1024.07 1023.18 1022.28 1021.39 1020.56 1019.81 1019.13 1018.52 1017.95 1017.36 1016.73 1016.01 1015.18 1014.24 1013.21 1012.14 1011.09 1010.14 1009.34 1008.75 1008.41 1008.33 1008.49 1008.84 1009.34 1009.94 1010.57 1011.19 1011.78 1012.33
1032.60 1032.19 1031.72 1031.20 1030.65 1030.09 1029.55 1029.01 1028.49 1027.95 1027.39 1026.77 1026.07 1025.29 1024.43 1023.52 1022.57 1021.62 1020.71 1019.86 1019.09 1018.39 1017.74 1017.11 1016.46 1015.76 1014.98 1014.12 1013.19 1012.22 1011.27 1010.39 1009.66 1009.11 1008.78 1008.70 1008.84 1009.18 1009.66 1010.25 1010.89 1011.53 1012.15 1012.73
1033.54 1033.07 1032.52 1031.92 1031.29 1030.66 1030.05 1029.46 1028.89 1028.32 1027.74 1027.11 1026.41 1025.63 1024.76 1023.81 1022.81 1021.80 1020.80 1019.86 1018.99 1018.19 1017.46 1016.78 1016.11 1015.43 1014.70 1013.93 1013.10 1012.26 1011.43 1010.67 1010.02 1009.53 1009.24 1009.16 1009.29 1009.60 1010.06 1010.63 1011.25 1011.89 1012.52 1013.12
1034.07 1033.60 1033.04 1032.41 1031.76 1031.10 1030.46 1029.84 1029.25 1028.67 1028.07 1027.43 1026.72 1025.93 1025.03 1024.05 1023.01 1021.93 1020.85 1019.82 1018.84 1017.95 1017.14 1016.41 1015.71 1015.05 1014.38 1013.69 1012.98 1012.27 1011.57 1010.93 1010.38 1009.97 1009.73 1009.67 1009.80 1010.08 1010.51 1011.04 1011.63 1012.25 1012.87 1013.47
1034.15 1033.74 1033.23 1032.65 1032.04 1031.41 1030.78 1030.17 1029.58 1028.99 1028.38 1027.73 1027.01 1026.20 1025.28 1024.27 1023.18 1022.04 1020.90 1019.77 1018.71 1017.73 1016.85 1016.05 1015.33 1014.67 1014.03 1013.42 1012.82 1012.23 1011.66 1011.15 1010.72 1010.40 1010.21 1010.18 1010.31 1010.58 1010.97 1011.46 1012.01 1012.60 1013.21 1013.81
1033.79 1033.49 1033.10 1032.64 1032.12 1031.57 1031.00 1030.44 1029.87 1029.29 1028.69 1028.03 1027.29 1026.46 1025.52 1024.48 1023.36 1022.17 1020.97 1019.77 1018.64 1017.58 1016.62 1015.76 1014.99 1014.31 1013.70 1013.13 1012.61 1012.12 1011.67 1011.27 1010.95 1010.72 1010.61 1010.63 1010.78 1011.04 1011.42 1011.88 1012.40 1012.96 1013.54 1014.14
1033.08 1032.94 1032.71 1032.40 1032.03 1031.60 1031.13 1030.64 1030.12 1029.56 1028.97 1028.31 1027.56 1026.72 1025.77 1024.71 1023.57 1022.35 1021.10 1019.86 1018.65 1017.52 1016.48 1015.55 1014.73 1014.01 1013.37 1012.82 1012.34 1011.91 1011.55 1011.25 1011.03 1010.90 1010.87 1010.95 1011.13 1011.42 1011.80 1012.25 1012.77 1013.32 1013.89 1014.49
1032.21 1032.23 1032.17 1032.04 1031.82 1031.53 1031.18 1030.77 1030.32 1029.81 1029.23 1028.58 1027.84 1026.99 1026.04 1024.98 1023.83 1022.60 1021.33 1020.05 1018.79 1017.59 1016.47 1015.45 1014.55 1013.75 1013.07 1012.49 1012.00 1011.60 1011.29 1011.07 1010.93 1010.89 1010.94 1011.09 1011.35 1011.68 1012.10 1012.58 1013.11 1013.68 1014.27 1014.88
1031.34 1031.50 1031.60 1031.63 1031.56 1031.42 1031.18 1030.87 1030.48 1030.02 1029.47 1028.84 1028.11 1027.28 1026.34 1025.30 1024.16 1022.94 1021.66 1020.35 1019.05 1017.78 1016.58 1015.47 1014.46 1013.57 1012.79 1012.15 1011.62 1011.21 1010.91 1010.73 1010.65 1010.69 1010.83 1011.07 1011.41 1011.82 1012.31 1012.84 1013.43 1014.04 1014.67 1015.32
1030.63 1030.90 1031.12 1031.28 1031.34 1031.31 1031.18 1030.95 1030.63 1030.21 1029.70 1029.10 1028.40 1027.59 1026.68 1025.67 1024.55 1023.35 1022.08 1020.77 1019.43 1018.11 1016.83 1015.61 1014.49 1013.48 1012.59 1011.85 1011.24 1010.78 1010.47 1010.29 1010.26 1010.35 1010.57 1010.90 1011.33 1011.84 1012.42 1013.05 1013.71 1014.39 1015.09 1015.79
1030.19 1030.52 1030.82 1031.06 1031.22 1031.27 1031.22 1031.05 1030.78 1030.40 1029.93 1029.36 1028.69 1027.92 1027.05 1026.08 1025.01 1023.84 1022.60 1021.29 1019.93 1018.57 1017.21 1015.90 1014.67 1013.54 1012.53 1011.67 1010.96 1010.43 1010.06 1009.87 1009.84 1009.97 1010.25 1010.66 1011.18 1011.79 1012.47 1013.20 1013.96 1014.74 1015.52 1016.29
1030.04 1030.39 1030.73 1031.02 1031.22 1031.33 1031.32 1031.20 1030.96 1030.61 1030.17 1029.63 1028.99 1028.27 1027.44 1026.53 1025.51 1024.40 1023.19 1021.90 1020.55 1019.16 1017.76 1016.37 1015.04 1013.80 1012.67 1011.69 1010.88 1010.25 1009.82 1009.58 1009.53 1009.67 1009.98 1010.45 1011.04 1011.73 1012.51 1013.33 1014.19 1015.07 1015.94 1016.80
1030.15 1030.49 1030.84 1031.14 1031.36 1031.49 1031.50 1031.40 1031.18 1030.85 1030.43 1029.91 1029.32 1028.63 1027.86 1027.01 1026.05 1025.00 1023.85 1022.61 1021.28 1019.89 1018.47 1017.04 1015.65 1014.32 1013.10 1012.02 1011.11 1010.38 1009.86 1009.56 1009.47 1009.58 1009.89 1010.37 1011.00 1011.75 1012.59 1013.49 1014.44 1015.40 1016.35 1017.29
1030.43 1030.76 1031.09 1031.39 1031.61 1031.74 1031.75 1031.65 1031.44 1031.12 1030.71 1030.22 1029.66 1029.02 1028.30 1027.51 1026.63 1025.65 1024.57 1023.39 1022.12 1020.77 1019.36 1017.94 1016.52 1015.15 1013.87 1012.72 1011.72 1010.91 1010.31 1009.93 1009.77 1009.83 1010.09 1010.55 1011.17 1011.92 1012.79 1013.73 1014.72 1015.74 1016.76 1017.77
1030.77 1031.09 1031.42 1031.70 1031.92 1032.04 1032.04 1031.94 1031.73 1031.42 1031.02 1030.55 1030.02 1029.42 1028.76 1028.03 1027.22 1026.32 1025.32 1024.23 1023.04 1021.76 1020.42 1019.03 1017.64 1016.28 1014.98 1013.80 1012.75 1011.88 1011.20 1010.74 1010.49 1010.47 1010.66 1011.05 1011.62 1012.33 1013.17 1014.11 1015.11 1016.15 1017.20 1018.25
1031.08 1031.41 1031.74 1032.03 1032.24 1032.35 1032.35 1032.24 1032.03 1031.73 1031.34 1030.89 1030.39 1029.83 1029.22 1028.55 1027.81 1027.00 1026.10 1025.10 1024.01 1022.84 1021.59 1020.29 1018.97 1017.66 1016.39 1015.21 1014.16 1013.25 1012.51 1011.98 1011.65 1011.53 1011.62 1011.91 1012.39 1013.02 1013.80 1014.68 1015.65 1016.67 1017.72 1018.77
1031.32 1031.68 1032.02 1032.31 1032.52 1032.64 1032.64 1032.54 1032.33 1032.04 1031.67 1031.24 1030.76 1030.24 1029.68 1029.06 1028.40 1027.67 1026.86 1025.97 1025.00 1023.94 1022.81 1021.63 1020.42 1019.20 1018.01 1016.88 1015.85 1014.94 1014.18 1013.58 1013.18 1012.97 1012.95 1013.13 1013.49 1014.02 1014.69 1015.48 1016.38 1017.34 1018.35 1019.38
1031.47 1031.86 1032.22 1032.53 1032.76 1032.88 1032.89 1032.80 1032.61 1032.34 1031.99 1031.58 1031.13 1030.65 1030.12 1029.56 1028.96 1028.30 1027.59 1026.80 1025.95 1025.02 1024.02 1022.98 1021.90 1020.80 1019.72 1018.68 1017.70 1016.83 1016.07 1015.45 1014.99 1014.70 1014.59 1014.66 1014.90 1015.31 1015.86 1016.54 1017.34 1018.21 1019.15 1020.11
1031.55 1031.97 1032.35 1032.68 1032.92 1033.06 1033.09 1033.02 1032.85 1032.60 1032.28 1031.91 1031.48 1031.03 1030.54 1030.03 1029.48 1028.89 1028.25 1027.56 1026.81 1026.01 1025.15 1024.24 1023.31 1022.35 1021.40 1020.47 1019.59 1018.78 1018.06 1017.45 1016.97 1016.63 1016.45 1016.43 1016.56 1016.85 1017.28 1017.85 1018.52 1019.29 1020.13 1021.01
1031.58 1032.02 1032.42 1032.75 1033.01 1033.16 1033.22 1033.17 1033.03 1032.82 1032.53 1032.19 1031.80 1031.37 1030.92 1030.44 1029.93 1029.39 1028.82 1028.21 1027.56 1026.87 1026.13 1025.37 1024.57 1023.77 1022.96 1022.16 1021.39 1020.67 1020.02 1019.46 1018.99 1018.64 1018.42 1018.33 1018.39 1018.58 1018.90 1019.35 1019.91 1020.56 1021.28 1022.05
1031.57 1032.01 1032.41 1032.75 1033.01 1033.18 1033.25 1033.24 1033.13 1032.95 1032.71 1032.40 1032.05 1031.65 1031.23 1030.78 1030.31 1029.81 1029.29 1028.74 1028.17 1027.57 1026.95 1026.31 1025.65 1024.99 1024.32 1023.66 1023.02 1022.42 1021.86 1021.37 1020.95 1020.62 1020.39 1020.28 1020.28 1020.40 1020.63 1020.98 1021.42 1021.95 1022.55 1023.20
1031.54 1031.95 1032.33 1032.65 1032.91 1033.08 1033.18 1033.19 1033.13 1032.99 1032.78 1032.52 1032.20 1031.84 1031.45 1031.03 1030.58 1030.12 1029.64 1029.15 1028.64 1028.12 1027.60 1027.07 1026.53 1026.00 1025.47 1024.94 1024.44 1023.95 1023.50 1023.10 1022.75 1022.47 1022.26 1022.14 1022.12 1022.19 1022.36 1022.61 1022.96 1023.37 1023.85 1024.36
Thickness
5284 5290 5291 5291 5295 5299 5299 5301 5302 5307 5312 5316 5320 5327 5337 5343 5352 5362 5370 5378 5386 5393 5400 5408 5416 5424 5433 5441 5448 5456 5463 5469 5475 5480 5485 5490 5494 5497 5500 5504 5507 5510 5512 5514
5283 5290 5288 5286 5287 5290 5290 5291 5293 5298 5302 5305 5311 5319 5326 5332 5340 5349 5357 5365 5373 5380 5387 5395 5403 5411 5419 5427 5435 5443 5450 5457 5463 5468 5473 5478 5482 5486 5489 5493 5496 5499 5502 5503
5272 5275 5281 5273 5272 5274 5277 5277 5281 5287 5291 5295 5303 5311 5315 5322 5330 5337 5344 5352 5360 5367 5374 5381 5389 5397 5405 5414 5423 5430 5437 5444 5450 5456 5461 5466 5470 5474 5478 5481 5485 5488 5490 5492
5261 5262 5257 5268 5267 5267 5269 5271 5271 5277 5281 5285 5292 5300 5307 5312 5318 5325 5333 5340 5347 5355 5362 5369 5376 5384 5393 5401 5410 5417 5424 5431 5437 5443 5448 5453 5458 5462 5465 5469 5473 5476 5477 5479
5251 5247 5253 5263 5261 5257 5258 5264 5265 5268 5273 5278 5286 5296 5303 5307 5310 5315 5323 5329 5336 5343 5350 5357 5364 5372 5380 5388 5396 5403 5410 5417 5423 5429 5435 5440 5445 5449 5453 5457 5460 5463 5464 5466
5240 5244 5248 5255 5254 5254 5255 5257 5260 5260 5264 5269 5277 5284 5294 5297 5301 5307 5314 5321 5327 5333 5340 5347 5354 5361 5368 5375 5382 5389 5396 5403 5410 5416 5422 5427 5432 5436 5440 5444 5447 5449 5451 5453
5232 5231 5240 5245 5247 5251 5246 5251 5252 5251 5255 5259 5264 5269 5277 5284 5291 5298 5305 5312 5318 5324 5330 5336 5343 5350 5357 5363 5369 5376 5383 5390 5397 5403 5409 5414 5419 5423 5427 5430 5433 5436 5438 5440
5224 5226 5237 5241 5241 5238 5240 5243 5243 5245 5248 5252 5258 5264 5270 5277 5283 5291 5297 5304 5309 5315 5321 5327 5333 5339 5346 5351 5357 5364 5371 5378 5384 5390 5395 5401 5406 5410 5413 5417 5420 5422 5424 5426
5226 5234 5237 5234 5233 5235 5234 5235 5238 5240 5244 5248 5253 5258 5264 5271 5277 5282 5289 5295 5301 5306 5312 5318 5323 5329 5334 5340 5346 5353 5360 5366 5372 5377 5382 5387 5392 5397 5400 5403 5406 5409 5411 5413
5223 5229 5230 5229 5228 5229 5229 5230 5233 5236 5239 5244 5247 5252 5258 5264 5270 5275 5281 5287 5292 5296 5302 5307 5313 5318 5323 5329 5336 5343 5349 5354 5360 5365 5370 5374 5379 5383 5387 5390 5393 5396 5398 5399
5219 5224 5225 5228 5226 5225 5226 5227 5229 5233 5236 5239 5243 5247 5252 5257 5262 5267 5273 5278 5283 5287 5293 5298 5303 5309 5314 5320 5326 5332 5338 5343 5348 5353 5358 5362 5366 5369 5374 5377 5381 5384 5386 5388
5223 5224 5220 5222 5223 5223 5222 5224 5226 5228 5232 5236 5238 5241 5245 5249 5253 5258 5264 5269 5274 5279 5284 5289 5294 5300 5305 5311 5316 5322 5327 5333 5337 5342 5346 5350 5353 5356 5360 5364 5368 5371 5374 5376
5222 5221 5219 5219 5219 5218 5218 5219 5221 5223 5225 5229 5232 5234 5238 5242 5247 5251 5256 5261 5265 5270 5275 5280 5285 5291 5296 5302 5307 5313 5317 5322 5327 5331 5335 5339 5342 5345 5348 5351 5355 5358 5361 5363
5219 5217 5216 5216 5215 5214 5214 5215 5216 5217 5219 5221 5224 5227 5230 5234 5238 5243 5247 5251 5257 5262 5266 5271 5276 5282 5287 5292 5298 5303 5308 5312 5317 5321 5325 5328 5331 5334 5337 5340 5342 5344 5347 5350
5216 5214 5213 5212 5211 5210 5210 5210 5210 5211 5213 5215 5218 5220 5224 5227 5230 5234 5239 5244 5249 5254 5258 5263 5268 5272 5277 5283 5288 5293 5297 5302 5306 5310 5314 5317 5320 5323 5326 5328 5330 5332 5334 5336
5214 5212 5210 5208 5207 5205 5203 5203 5203 5205 5206 5208 5210 5213 5216 5219 5223 5227 5231 5236 5240 5244 5249 5253 5258 5263 5268 5273 5278 5283 5287 5292 5296 5300 5303 5306 5309 5312 5314 5316 5319 5321 5323 5325
5208 5207 5205 5203 5202 5200 5198 5197 5197 5198 5199 5201 5203 5206 5209 5213 5216 5220 5223 5227 5231 5235 5240 5245 5249 5254 5259 5264 5268 5272 5277 5281 5286 5289 5293 5296 5298 5301 5303 5306 5308 5310 5312 5315
5205 5203 5201 5198 5196 5194 5194 5193 5192 5193 5193 5195 5198 5200 5202 5205 5208 5212 5215 5219 5223 5228 5233 5237 5242 5246 5251 5255 5259 5263 5267 5271 5275 5278 5281 5285 5287 5290 5293 5295 5297 5299 5301 5302
5201 5199 5197 5195 5192 5190 5189 5188 5188 5188 5189 5191 5192 5193 5196 5198 5201 5205 5208 5212 5216 5220 5225 5229 5234 5239 5242 5246 5250 5254 5258 5261 5264 5268 5271 5274 5276 5279 5281 5284 5286 5287 5289 5291
5197 5196 5193 5190 5188 5185 5184 5183 5183 5183 5183 5184 5186 5188 5190 5192 5195 5198 5201 5204 5207 5211 5216 5221 5226 5230 5234 5238 5242 5245 5248 5252 5255 5258 5261 5264 5266 5268 5271 5273 5275 5277 5279 5281
5192 5190 5188 5185 5182 5180 5179 5178 5177 5177 5178 5178 5179 5181 5184 5186 5188 5191 5194 5198 5202 5206 5210 5215 5218 5222 5226 5229 5233 5236 5239 5243 5246 5249 5251 5254 5257 5259 5261 5263 5266 5268 5270 5271
5186 5184 5182 5179 5177 5175 5174 5173 5172 5172 5172 5173 5174 5176 5178 5181 5183 5185 5188 5191 5195 5199 5203 5207 5210 5215 5219 5222 5225 5228 5231 5234 5237 5240 5242 5245 5248 5250 5252 5255 5257 5259 5261 5263
5182 5179 5176 5174 5171 5169 5168 5167 5167 5167 5167 5168 5169 5170 5172 5174 5176 5178 5182 5185 5188 5192 5196 5199 5203 5208 5212 5214 5216 5219 5222 5225 5228 5231 5234 5237 5239 5242 5244 5247 5249 5252 5254 5255
5176 5173 5171 5168 5165 5163 5162 5162 5162 5162 5162 5163 5164 5165 5166 5168 5171 5173 5175 5179 5182 5186 5189 5193 5197 5201 5204 5205 5207 5210 5213 5216 5220 5223 5226 5229 5231 5234 5236 5239 5242 5244 5246 5248
5171 5167 5164 5161 5159 5159 5158 5157 5156 5156 5157 5158 5159 5160 5161 5163 5164 5167 5170 5172 5176 5179 5182 5186 5189 5193 5195 5197 5199 5202 5205 5208 5212 5215 5218 5221 5224 5226 5229 5232 5234 5236 5238 5240
5164 5161 5159 5157 5154 5153 5152 5151 5150 5151 5151 5153 5154 5155 5156 5158 5160 5162 5164 5167 5169 5173 5176 5178 5181 5184 5187 5190 5192 5195 5198 5201 5204 5207 5211 5213 5216 5219 5222 5225 5227 5229 5231 5233
5159 5156 5154 5152 5150 5148 5146 5145 5144 5145 5146 5146 5147 5150 5151 5152 5154 5156 5158 5160 5163 5166 5169 5172 5174 5177 5180 5182 5185 5188 5191 5194 5197 5200 5203 5206 5209 5212 5215 5217 5220 5222 5224 5226